Oliver, British Columbia

6:48 AM PST on February 25, 2018 (GMT -0800)
Oliver

Weather History for 71215 - October, 2013

Change the Weather History Date:

Saturday, October 12, 2013

  Actual Average Record
Temperature  
Mean Temperature 52 °F -  
Max Temperature 60 °F - - ()
Min Temperature 45 °F - - ()
Degree Days  
Heating Degree Days 12    
Growing Degree Days 2 (Base 50)    
Moisture  
Dew Point 39 °F    
Average Humidity 61    
Maximum Humidity 83    
Minimum Humidity 38    
Precipitation  
Precipitation 0.00 in - - ()
Sea Level Pressure  
Sea Level Pressure 30.12 in    
Wind  
Wind Speed 3 mph ()    
Max Wind Speed 8 mph    
Max Gust Speed -    
T = Trace of Precipitation, MM = Missing Value Source: Averaged Metar Reports

Daily Weather History Graph

Daily Weather History Graph

Search for Another Location

Airport or City:

Trip Planner

Search our weather history database for the weather conditions in past years. The results will help you decide how hot, cold, wet, or windy it might be!

Date:

Astronomy

Oct. 12, 2013 Rise Set
Actual Time 7:14 AM PDT 6:13 PM PDT
Civil Twilight 6:42 AM PDT 6:44 PM PDT
Nautical Twilight 6:05 AM PDT 7:21 PM PDT
Astronomical Twilight 5:28 AM PDT 7:58 PM PDT
Moon 2:55 PM PDT (10/12) No Moon Set
Length of Visible Light 12h 02m
Length of Day
10h 58m
First Quarter, 60% of the Moon is Illuminated
Oct 12
First Quarter
Oct 18
Full
Oct 26
Last Quarter
Nov 3
New
Nov 9
First Quarter

Hourly Weather History & Observations

Time (PDT) Temp. Dew Point Humidity Pressure Visibility Wind Dir Wind Speed Gust Speed Precip Events Conditions
12:00 AM 48.6 °F 40.8 °F 75% 30.06 in - North 3.5 mph - N/A   Unknown
1:00 AM 46.8 °F 40.3 °F 78% 30.06 in - NNE 1.2 mph - N/A   Unknown
2:00 AM 48.6 °F 39.7 °F 72% 30.07 in - Calm Calm - N/A   Unknown
3:00 AM 46.9 °F 40.1 °F 77% 30.08 in - NE 2.3 mph - N/A   Unknown
4:00 AM 45.7 °F 40.8 °F 83% 30.08 in - NE 1.2 mph - N/A   Unknown
5:00 AM 48 °F 41 °F 68% 30.09 in - NNE 3.5 mph - -  
5:00 AM 47.7 °F 40.8 °F 77% 30.09 in - NNE 3.5 mph - N/A   Unknown
6:00 AM 48.0 °F 39.6 °F 73% 30.09 in - North 3.5 mph - N/A   Unknown
7:00 AM 49.5 °F 39.4 °F 68% 30.10 in - NNW 4.6 mph - N/A   Unknown
8:00 AM 49.1 °F 39.2 °F 69% 30.11 in - NW 4.6 mph - N/A   Unknown
9:00 AM 49.5 °F 39.6 °F 69% 30.12 in - NW 4.6 mph - N/A   Unknown
10:00 AM 50.5 °F 39.6 °F 66% 30.13 in - NW 4.6 mph - N/A   Unknown
11:00 AM 53 °F 41 °F 52% 30.14 in - NW 4.6 mph - -  
11:00 AM 52.5 °F 40.6 °F 64% 30.14 in - NW 4.6 mph - N/A   Unknown
12:00 PM 54.9 °F 40.5 °F 58% 30.13 in - NW 4.6 mph - N/A   Unknown
1:00 PM 54.7 °F 37.9 °F 53% 30.12 in - WNW 5.8 mph - N/A   Unknown
2:00 PM 57.9 °F 38.7 °F 49% 30.10 in - NW 6.9 mph - N/A   Unknown
3:00 PM 58.6 °F 37.8 °F 46% 30.09 in - NW 4.6 mph - N/A   Unknown
4:00 PM 59.4 °F 37.6 °F 44% 30.09 in - NW 6.9 mph - N/A   Unknown
5:00 PM 58 °F 39 °F 38% 30.11 in - NW 5.8 mph - -  
5:00 PM 57.6 °F 39.4 °F 51% 30.11 in - NW 5.8 mph - N/A   Unknown
6:00 PM 55.8 °F 37.0 °F 49% 30.13 in - NNE 4.6 mph - N/A   Unknown
7:00 PM 55.4 °F 35.1 °F 46% 30.14 in - NNE 5.8 mph - N/A   Unknown
8:00 PM 55.2 °F 39.0 °F 54% 30.16 in - NNW 2.3 mph - N/A   Unknown
9:00 PM 54.3 °F 38.3 °F 55% 30.17 in - WNW 4.6 mph - N/A   Unknown
10:00 PM 52.9 °F 37.2 °F 55% 30.19 in - NW 6.9 mph - N/A   Unknown
11:00 PM 51 °F 38 °F 50% 30.20 in - NNW 8.1 mph - -  
11:00 PM 50.9 °F 37.9 °F 61% 30.20 in - NNW 8.1 mph - N/A   Unknown